Location: Moena
(46.3667°N, 11.6500°E)
Time: 12:37:11
(UTC+00:00)

CZ-4 R/B - Pass Details

Date: 03 March 2021
Orbit: 532 x 597 km, 97.7° (Epoch: 19 April)

Event Time Altitude Azimuth Distance (km) Brightness Sun altitude
Rises 18:01:41 0° 175° (S) 2,665 4.8 -11.0°
Reaches altitude 10° 18:03:47 10° 180° (S) 1,783 3.9 -11.4°
Maximum altitude 18:07:35 57° 259° (W) 638 2.0 -12.0°
Drops below altitude 10° 18:11:27 10° 339° (NNW) 1,821 4.3 -12.7°
Sets 18:13:38 0° 344° (NNW) 2,729 5.2 -13.1°
